�������l�o���
Date,Time,MP-1(��Sv/h),MP-2(��Sv/h),MP-3(��Sv/h),MP-4(��Sv/h),MP-5(��Sv/h),MP-6(��Sv/h),MP-7(��Sv/h),MP-8(��Sv/h),����,����(m/s),���J
2022/01/01,00:00,0.578,0.868,0.551,1.067,0.740,0.349,0.609,0.579,���쐼,6.8,��
2022/01/01,00:10,0.578,0.866,0.549,1.066,0.740,0.350,0.610,0.581,��,8.5,��
2022/01/01,00:20,0.578,0.865,0.548,1.068,0.740,0.348,0.611,0.582,��,5.9,��
2022/01/01,00:30,0.577,0.866,0.550,1.066,0.741,0.349,0.610,0.581,��,7.3,��
2022/01/01,00:40,0.579,0.870,0.550,1.067,0.742,0.349,0.611,0.580,��,7.5,��
2022/01/01,00:50,0.578,0.870,0.549,1.066,0.742,0.348,0.610,0.580,��,8.5,��
2022/01/01,01:00,0.578,0.867,0.550,1.065,0.740,0.348,0.611,0.579,��,8.6,��
2022/01/01,01:10,0.577,0.869,0.549,1.066,0.741,0.350,0.610,0.580,��,7.7,��
2022/01/01,01:20,0.577,0.870,0.551,1.067,0.741,0.349,0.613,0.579,��,8.0,��
2022/01/01,01:30,0.577,0.867,0.550,1.066,0.740,0.348,0.611,0.580,��,8.0,��
2022/01/01,01:40,0.577,0.869,0.551,1.067,0.741,0.349,0.611,0.580,���쐼,7.3,��
2022/01/01,01:50,0.577,0.867,0.549,1.066,0.742,0.349,0.612,0.580,��,6.7,��
2022/01/01,02:00,0.577,0.868,0.548,1.066,0.740,0.349,0.611,0.579,��,6.5,��
2022/01/01,02:10,0.578,0.869,0.550,1.066,0.742,0.350,0.611,0.579,��,7.3,��
2022/01/01,02:20,0.578,0.868,0.549,1.066,0.739,0.348,0.609,0.581,���쐼,7.5,��
2022/01/01,02:30,0.577,0.867,0.549,1.066,0.739,0.348,0.610,0.579,��,6.9,��
2022/01/01,02:40,0.579,0.867,0.549,1.067,0.741,0.349,0.610,0.580,��,6.4,��
2022/01/01,02:50,0.578,0.867,0.550,1.064,0.738,0.349,0.610,0.579,��,7.1,��
2022/01/01,03:00,0.576,0.869,0.548,1.065,0.742,0.349,0.612,0.578,��,8.5,��
2022/01/01,03:10,0.579,0.868,0.549,1.067,0.741,0.349,0.611,0.580,��,6.6,��
2022/01/01,03:20,0.576,0.869,0.550,1.063,0.740,0.349,0.610,0.580,��,7.1,��
2022/01/01,03:30,0.578,0.867,0.549,1.067,0.741,0.350,0.612,0.580,��,6.4,��
2022/01/01,03:40,0.576,0.868,0.550,1.065,0.742,0.349,0.611,0.580,��,5.5,��
2022/01/01,03:50,0.578,0.869,0.549,1.066,0.740,0.348,0.611,0.581,��,4.9,��
2022/01/01,04:00,0.577,0.869,0.549,1.067,0.740,0.350,0.612,0.579,��,6.5,��
2022/01/01,04:10,0.578,0.867,0.550,1.068,0.740,0.348,0.611,0.580,��,6.5,��
2022/01/01,04:20,0.578,0.867,0.549,1.068,0.741,0.349,0.610,0.580,��,5.6,��
2022/01/01,04:30,0.578,0.867,0.550,1.068,0.741,0.351,0.612,0.579,��,3.8,��
2022/01/01,04:40,0.578,0.868,0.548,1.067,0.740,0.350,0.611,0.581,���k��,3.9,��
2022/01/01,04:50,0.578,0.868,0.550,1.067,0.742,0.349,0.610,0.579,���k��,4.2,��
2022/01/01,05:00,0.576,0.867,0.549,1.068,0.739,0.348,0.609,0.580,���k��,5.0,��
2022/01/01,05:10,0.578,0.869,0.549,1.065,0.740,0.349,0.611,0.580,���k��,3.7,��
2022/01/01,05:20,0.577,0.865,0.549,1.066,0.742,0.349,0.611,0.579,�k��,3.6,��
2022/01/01,05:30,0.576,0.866,0.548,1.066,0.739,0.350,0.609,0.581,�k��,2.6,��
2022/01/01,05:40,0.576,0.869,0.550,1.067,0.740,0.348,0.612,0.580,�k��,3.2,��
2022/01/01,05:50,0.576,0.866,0.549,1.067,0.739,0.349,0.609,0.580,�k��,3.3,��
2022/01/01,06:00,0.578,0.867,0.549,1.066,0.740,0.347,0.611,0.579,�k��,3.3,��
2022/01/01,06:10,0.577,0.867,0.549,1.067,0.741,0.348,0.609,0.579,�k��,2.3,��
2022/01/01,06:20,0.579,0.867,0.549,1.067,0.741,0.348,0.608,0.580,�k��,2.3,��
2022/01/01,06:30,0.577,0.867,0.549,1.069,0.738,0.349,0.610,0.579,���k��,2.6,��
2022/01/01,06:40,0.577,0.868,0.548,1.067,0.741,0.348,0.610,0.580,��,3.2,��
2022/01/01,06:50,0.578,0.867,0.548,1.066,0.739,0.349,0.609,0.579,��,3.6,��
2022/01/01,07:00,0.576,0.867,0.549,1.068,0.738,0.348,0.609,0.579,��,3.0,��
2022/01/01,07:10,0.577,0.867,0.550,1.068,0.739,0.350,0.611,0.578,��,2.3,��
2022/01/01,07:20,0.577,0.866,0.548,1.068,0.741,0.348,0.610,0.580,���쐼,0.9,��
2022/01/01,07:30,0.576,0.866,0.549,1.067,0.740,0.350,0.609,0.579,�k�k��,1.4,��
2022/01/01,07:40,0.578,0.868,0.548,1.069,0.739,0.349,0.611,0.579,�k�k��,1.9,��
2022/01/01,07:50,0.578,0.868,0.549,1.068,0.739,0.349,0.610,0.579,�k�k��,2.0,��
2022/01/01,08:00,0.577,0.869,0.548,1.066,0.738,0.348,0.611,0.578,�k,3.3,��
2022/01/01,08:10,0.577,0.866,0.551,1.067,0.740,0.349,0.610,0.579,�k�k��,2.6,��
2022/01/01,08:20,0.578,0.866,0.548,1.067,0.740,0.349,0.610,0.579,�k�k��,2.9,��
2022/01/01,08:30,0.579,0.870,0.548,1.068,0.740,0.350,0.610,0.579,�k,2.9,��
2022/01/01,08:40,0.577,0.870,0.550,1.067,0.742,0.350,0.611,0.579,�k�k��,2.9,��
2022/01/01,08:50,0.578,0.867,0.550,1.067,0.739,0.350,0.609,0.579,�k,2.3,��
2022/01/01,09:00,0.577,0.867,0.547,1.067,0.740,0.348,0.609,0.580,�k,1.2,��
2022/01/01,09:10,0.579,0.865,0.548,1.066,0.740,0.348,0.609,0.578,�k,2.6,��
2022/01/01,09:20,0.578,0.866,0.547,1.067,0.739,0.349,0.610,0.579,�k��,2.8,��
2022/01/01,09:30,0.578,0.869,0.550,1.066,0.739,0.349,0.610,0.580,���k��,4.5,��
2022/01/01,09:40,0.579,0.868,0.550,1.068,0.738,0.349,0.612,0.579,�k,4.2,��
2022/01/01,09:50,0.579,0.868,0.550,1.068,0.739,0.347,0.611,0.580,���k��,7.4,��
2022/01/01,10:00,0.579,0.869,0.549,1.066,0.739,0.348,0.610,0.579,�k��,5.5,��
2022/01/01,10:10,0.579,0.870,0.550,1.067,0.739,0.349,0.611,0.578,���k��,6.7,��
2022/01/01,10:20,0.579,0.871,0.550,1.066,0.739,0.349,0.608,0.579,�k��,8.5,��
2022/01/01,10:30,0.581,0.870,0.550,1.069,0.741,0.349,0.610,0.579,�k��,11.0,��
2022/01/01,10:40,0.578,0.869,0.551,1.069,0.742,0.349,0.610,0.578,�k��,6.9,��
2022/01/01,10:50,0.580,0.872,0.550,1.069,0.739,0.349,0.610,0.580,�k��,6.4,��
2022/01/01,11:00,0.579,0.870,0.550,1.068,0.742,0.348,0.610,0.578,�k��,6.6,��
2022/01/01,11:10,0.580,0.870,0.550,1.067,0.741,0.349,0.610,0.579,���k��,4.0,��
2022/01/01,11:20,0.578,0.872,0.552,1.072,0.743,0.350,0.608,0.583,�k�k��,6.3,��
2022/01/01,11:30,0.579,0.872,0.551,1.069,0.744,0.349,0.609,0.580,�k��,5.5,��
2022/01/01,11:40,0.580,0.871,0.551,1.069,0.744,0.349,0.609,0.580,���k��,7.2,��
2022/01/01,11:50,0.579,0.871,0.552,1.068,0.744,0.349,0.611,0.581,���k��,5.9,��
2022/01/01,12:00,0.581,0.872,0.551,1.068,0.745,0.348,0.612,0.583,���k��,8.3,��
2022/01/01,12:10,0.579,0.870,0.552,1.068,0.744,0.349,0.609,0.580,���k��,7.9,��
2022/01/01,12:20,0.580,0.870,0.552,1.069,0.743,0.349,0.610,0.581,�k��,11.3,��
2022/01/01,12:30,0.581,0.872,0.549,1.069,0.743,0.350,0.612,0.580,�k��,11.3,��
2022/01/01,12:40,0.580,0.873,0.552,1.068,0.744,0.349,0.612,0.580,�k��,7.7,��
2022/01/01,12:50,0.582,0.870,0.551,1.068,0.745,0.350,0.612,0.583,���k��,9.3,��
2022/01/01,13:00,0.582,0.872,0.551,1.067,0.745,0.350,0.613,0.583,���k��,6.9,��
2022/01/01,13:10,0.580,0.870,0.552,1.069,0.746,0.348,0.613,0.582,���k��,9.6,��
2022/01/01,13:20,0.580,0.871,0.554,1.069,0.745,0.350,0.613,0.583,��,9.4,��
2022/01/01,13:30,0.581,0.873,0.552,1.068,0.743,0.350,0.611,0.582,��,7.2,��
2022/01/01,13:40,0.579,0.872,0.551,1.069,0.742,0.351,0.612,0.582,��,6.2,��
2022/01/01,13:50,0.581,0.872,0.552,1.072,0.744,0.351,0.612,0.583,���k��,8.4,��
2022/01/01,14:00,0.581,0.874,0.552,1.070,0.744,0.350,0.612,0.582,���k��,7.9,��
2022/01/01,14:10,0.583,0.872,0.552,1.071,0.744,0.351,0.612,0.581,���k��,7.8,��
2022/01/01,14:20,0.581,0.871,0.551,1.069,0.743,0.351,0.612,0.583,���k��,9.0,��
2022/01/01,14:30,0.584,0.874,0.551,1.070,0.746,0.351,0.611,0.582,���k��,10.3,��
2022/01/01,14:40,0.582,0.871,0.551,1.069,0.746,0.350,0.612,0.581,���k��,7.2,��
2022/01/01,14:50,0.581,0.873,0.551,1.071,0.744,0.349,0.613,0.582,���k��,9.3,��
2022/01/01,15:00,0.581,0.874,0.549,1.070,0.745,0.350,0.613,0.582,���k��,10.7,��
2022/01/01,15:10,0.583,0.872,0.552,1.072,0.745,0.350,0.612,0.582,���k��,7.4,��
2022/01/01,15:20,0.582,0.872,0.553,1.070,0.745,0.351,0.613,0.582,���k��,7.6,��
2022/01/01,15:30,0.580,0.874,0.553,1.072,0.744,0.350,0.611,0.584,���k��,9.6,��
2022/01/01,15:40,0.580,0.873,0.551,1.069,0.745,0.351,0.611,0.584,���k��,9.3,��
2022/01/01,15:50,0.581,0.874,0.551,1.072,0.745,0.350,0.611,0.583,�k��,4.6,��
2022/01/01,16:00,0.580,0.875,0.553,1.070,0.746,0.351,0.611,0.583,���k��,1.5,��
2022/01/01,16:10,0.580,0.871,0.552,1.069,0.745,0.350,0.611,0.582,���쐼,0.9,��
2022/01/01,16:20,0.580,0.874,0.552,1.072,0.743,0.350,0.610,0.582,���k��,1.1,��
2022/01/01,16:30,0.580,0.874,0.553,1.071,0.744,0.350,0.609,0.583,�쓌,2.3,��
2022/01/01,16:40,0.580,0.871,0.552,1.071,0.745,0.350,0.612,0.583,���k��,3.5,��
2022/01/01,16:50,0.580,0.872,0.554,1.070,0.745,0.350,0.610,0.582,�k��,3.8,��
2022/01/01,17:00,0.579,0.874,0.553,1.072,0.744,0.350,0.611,0.583,�k�k��,3.9,��
2022/01/01,17:10,0.581,0.874,0.552,1.071,0.745,0.349,0.611,0.582,�k�k��,5.1,��
2022/01/01,17:20,0.579,0.873,0.552,1.070,0.744,0.350,0.611,0.582,�k,4.5,��
2022/01/01,17:30,0.579,0.874,0.553,1.071,0.744,0.349,0.611,0.582,�k,5.2,��
2022/01/01,17:40,0.578,0.870,0.552,1.068,0.744,0.350,0.609,0.580,�k,5.1,��
2022/01/01,17:50,0.579,0.870,0.552,1.069,0.743,0.350,0.609,0.580,�k�k��,5.8,��
2022/01/01,18:00,0.580,0.873,0.552,1.068,0.746,0.350,0.612,0.581,�k��,6.1,��
2022/01/01,18:10,0.579,0.871,0.551,1.070,0.745,0.349,0.610,0.580,�k��,7.7,��
2022/01/01,18:20,0.580,0.872,0.552,1.069,0.744,0.349,0.610,0.582,�k��,8.3,��
2022/01/01,18:30,0.580,0.872,0.550,1.069,0.744,0.349,0.612,0.580,�k��,7.8,��
2022/01/01,18:40,0.578,0.871,0.551,1.070,0.744,0.348,0.611,0.580,�k��,8.9,��
2022/01/01,18:50,0.579,0.871,0.550,1.069,0.745,0.349,0.612,0.580,���k��,7.6,��
2022/01/01,19:00,0.579,0.872,0.551,1.070,0.745,0.348,0.611,0.581,���k��,9.6,��
2022/01/01,19:10,0.579,0.872,0.549,1.070,0.743,0.350,0.611,0.580,���k��,9.4,��
2022/01/01,19:20,0.579,0.871,0.550,1.068,0.745,0.349,0.612,0.581,���k��,7.9,��
2022/01/01,19:30,0.580,0.873,0.549,1.068,0.744,0.349,0.612,0.581,���k��,10.3,��
2022/01/01,19:40,0.578,0.872,0.549,1.070,0.743,0.348,0.610,0.581,���k��,9.4,��
2022/01/01,19:50,0.580,0.874,0.549,1.071,0.744,0.350,0.611,0.581,���k��,8.3,��
2022/01/01,20:00,0.576,0.872,0.549,1.068,0.742,0.348,0.612,0.578,���k��,6.9,��
2022/01/01,20:10,0.578,0.871,0.550,1.069,0.742,0.350,0.612,0.580,���k��,7.9,��
2022/01/01,20:20,0.579,0.871,0.548,1.069,0.743,0.348,0.612,0.579,���k��,9.4,��
2022/01/01,20:30,0.580,0.873,0.548,1.069,0.743,0.347,0.610,0.580,���k��,7.9,��
2022/01/01,20:40,0.579,0.871,0.550,1.069,0.744,0.348,0.610,0.580,�k��,10.5,��
2022/01/01,20:50,0.580,0.873,0.551,1.068,0.742,0.348,0.611,0.579,���k��,8.9,��
2022/01/01,21:00,0.578,0.873,0.551,1.070,0.744,0.347,0.611,0.580,�k��,7.9,��
2022/01/01,21:10,0.579,0.873,0.551,1.069,0.742,0.348,0.611,0.579,�k��,6.0,��
2022/01/01,21:20,0.579,0.873,0.550,1.070,0.744,0.349,0.612,0.580,�k��,6.0,��
2022/01/01,21:30,0.579,0.871,0.553,1.071,0.744,0.349,0.611,0.581,�k�k��,6.8,��
2022/01/01,21:40,0.579,0.871,0.551,1.068,0.743,0.349,0.610,0.580,�k��,7.3,��
2022/01/01,21:50,0.579,0.871,0.553,1.069,0.742,0.351,0.610,0.581,�k��,7.4,��
2022/01/01,22:00,0.579,0.872,0.552,1.070,0.742,0.348,0.611,0.581,�k��,8.1,��
2022/01/01,22:10,0.579,0.872,0.550,1.069,0.744,0.350,0.611,0.579,�k��,8.7,��
2022/01/01,22:20,0.581,0.872,0.552,1.069,0.744,0.350,0.611,0.580,�k��,8.1,��
2022/01/01,22:30,0.579,0.872,0.552,1.068,0.744,0.349,0.610,0.577,�k��,9.2,��
2022/01/01,22:40,0.580,0.872,0.552,1.070,0.744,0.348,0.613,0.579,�k��,8.3,��
2022/01/01,22:50,0.580,0.873,0.553,1.071,0.742,0.348,0.612,0.580,���k��,6.1,��
2022/01/01,23:00,0.579,0.870,0.553,1.068,0.742,0.349,0.611,0.581,���k��,7.2,��
2022/01/01,23:10,0.579,0.872,0.552,1.070,0.743,0.349,0.609,0.580,���k��,6.2,��
2022/01/01,23:20,0.579,0.874,0.552,1.068,0.743,0.350,0.610,0.580,���k��,5.6,��
2022/01/01,23:30,0.577,0.871,0.551,1.068,0.743,0.349,0.611,0.580,�k��,6.0,��
2022/01/01,23:40,0.579,0.871,0.553,1.071,0.744,0.348,0.611,0.581,�k��,8.2,��
2022/01/01,23:50,0.579,0.871,0.551,1.071,0.743,0.349,0.611,0.580,�k��,6.8,��
